METEOR 2-5 DEB

Satellite information

Favourite Embed

Satellite Type and Status

DEBRISIN ORBIT

Key statistics

Satellite METEOR 2-5 DEB at a glance.

Uptime

16747

Days in orbit

Revolutions

≈ 14.4

Per day

Orbit

LEO

Low Earth Orbit

Inclination

81.2

Latest

Satellite identification and parameters

Extended collection of information and parameters for METEOR 2-5 DEB.

Object identification

Identified? True

Debris? True

Object name: METEOR 2-5 DEB

International designator: 1979-095BC

Object number (NORAD): 36911

Object ID (CCSDS): 36911

Country: COMMONWEALTH OF INDEPENDENT STATES (CIS)

Current information (Y/N): Y

RCS size: SMALL

Orbital parameters

Period: 100.218 minutes

Inclination: 81.18 deg

SMA: 7147.026 km

Apoapsis: 780.894 km

Periapsis: 756.887 km

RAAN: 48.8946 deg

Eccentricy: 0.00167955

Argument of periapsis: 170.3067 deg

Mean anomaly: 189.8446 deg

Mean motion: 14.36860953 rev/day

Mean motion (dot): 0.00005109 rev/day2

B* drag term: 0.001721434 1/REarth

Two-line elements (TLE)

Creation date: Aug. 31, 2025, 11:35 a.m.

Reference frame: TEME

Reference center: EARTH

Epoch: Aug. 31, 2025, 4:55 a.m. UTC

TLE line 0: 0 METEOR 2-5 DEB

TLE line 1: 1 36911U 79095BC 25243.20551757 .00005109 00000-0 17214-2 0 9990

TLE line 2: 2 36911 81.1800 48.8946 0016795 170.3067 189.8446 14.36860953629069

Live tracking on map

Real-time ground track for satellite METEOR 2-5 DEB.

In-orbit conjunctions

A list of the most updated potential collisions computed for object METEOR 2-5 DEB.

Target Orbit TCA Probability of collision Miss distance Type
FENGYUN 1C DEB SSO 2025-07-22 12:39:11 0.0002618039 211.0 (m) DEBRIS
NOAA 16 DEB SSO 2025-01-01 09:43:53 0.0003458989 90.0 (m) DEBRIS
COSMOS 2251 DEB LEO 2024-11-16 02:17:27 0.0001338975 766.0 (m) DEBRIS

Associated space launch

Second generation soviet meteorological satellite

METEOR 2-5 DEB was lifted into orbit during the mission ‘Vostok 8A92M | Meteor-2 5’, on board a Vostok 8A92M space rocket.

The launch took place on Oct. 31, 1979, 9:25 a.m. from 43/4 (43R).

For more information about the launch, click the button.

Launch to space Vostok 8A92M | Meteor-2 5
Vostok 8A92M | Meteor-2 5

Agency: N/A

Status: Launch Successful

Launch date: Oct. 31, 1979, 9:25 a.m. UTC

Rocket: Vostok 8A92M

Launch pad: 43/4 (43R)

Location: Plesetsk Cosmodrome, Russian Federation

...

Latest news about this satellite

There are no fresh news available about this satellite. Check back as we update our databases every day.


Newsletter sign-up

Weekly statistics, charts and insights to help you stay on top of the space industry.